Weather in Alwar

India     27°34′30″N   76°36′48″E
temp.,
°C
wind,
m/s
gust,
m/s
humid.,
%
clouds,
%
prec.,
mm/h
press.,
hPa
HPBL,
m
2 july, sat
sat223:30+28ssw236994 0.0 999272
02:30+28ssw126924 0.0 998154
05:30+27ssw127410 0.0 998162
08:30+29s23648 0.0 999767
11:30+34s444954 0.0 9981744
14:30+35s454782 0.1 9961861
17:30+34ssw4449100 0.3 9951373
20:30+32sw3454100 0.4 997502
3 july, sun
sun323:30+32ssw25587 0.4 998485
02:30+31se12635 0.0 99749
05:30+30sse126624 0.6 99744
08:30+32sse335590 0.2 999875
11:30+35sse334340 0.7 9981852
14:30+37ssw333896 0.3 9962127
17:30+36wsw3339100 0.4 9952076
20:30+34wsw5751100 0.0 997619
4 july, mon
mon423:30+33w4655100 0.0 998600
02:30+32wnw476073 0.0 998470
05:30+31nw246443 0.0 998223
08:30+33wnw335385 0.0 1000831
11:30+35nnw3245100 0.0 9991827
14:30+36nw324293 0.3 9971771
17:30+35sw3345100 0.5 996741
20:30+33wsw3452100 0.8 997276
5 july, tue
tue523:30+32wsw2256100 0.9 99897
02:30+32w3857100 0.0 997293
05:30+31wnw376096 0.3 998266
08:30+34nw554982 0.1 999697
11:30+37n3240100 0.1 9992158
14:30+37nnw1239100 1.1 9971857
17:30+37w223965 1.6 9961495
20:30+35wsw2348100 0.0 998147
6 july, wed
wed623:30+34wsw2149100 0.0 99820
02:30+33wnw2454100 1.1 997118
05:30+31s2264100 1.4 998124
08:30+32wnw3560100 0.1 1000577
11:30+27wsw101282100 6.8 1002580
14:30+25nw3681100 14.6 1002305
17:30+27n3472100 14.6 1000353
20:30+27ese2577100 0.0 1003428